Date String (YYYY-MM-DD hh:mm:ss) UTC,Instrument flags,Ambient pressure (hPa),Sample flow (lpm),Bypass flow (lpm),Sample temperature (°C),Ambient temperature (°C),ASC tube jacket temperature (°C),LED temperature (°C),Box temperature (°C),Sample RH (%),Span deviation,Mass concentration (μg/m³),Mass concentration (μg/m³),Mass concentration (μg/m³)
DateTimeUTC,F1_M11,P_M11,Q1_M11,Q2_M11,T1_M11,T2_M11,T3_M11,T4_M11,T5_M11,U1_M11,ZSPAN_M11,X0_M11,X2_M11,X1_M11
2022-02-25 21:00:00,,0829.3,5.02,0.00,24.6,23.8,00.0,33.5,26.5,06.3,-001.3,0021.48,0015.42,0014.57
2022-02-25 21:01:00,,0828.8,4.99,0.00,24.6,23.8,00.0,33.5,26.5,06.2,-001.1,0021.71,0015.51,0014.64
2022-02-25 21:02:00,,0828.9,4.99,0.00,24.6,23.8,00.0,33.5,26.5,06.3,-000.8,0021.59,0015.55,0014.69
2022-02-25 21:03:00,,0828.9,5.01,0.00,24.6,23.9,00.0,33.5,26.5,06.4,-000.4,0021.39,0015.55,0014.71
2022-02-25 21:04:00,,0828.9,5.00,0.00,24.6,23.9,00.0,33.5,26.6,06.3,-000.4,0021.42,0015.55,0014.72
2022-02-25 21:05:00,,0828.9,5.00,0.00,24.6,23.9,00.0,33.5,26.5,06.2,-000.7,0021.37,0015.62,0014.77
2022-02-25 21:06:00,,0828.8,5.00,0.00,24.6,23.9,00.0,33.5,26.5,06.2,-001.0,0021.85,0015.74,0014.85
2022-02-25 21:07:00,,0829.3,4.99,0.00,24.6,23.9,00.0,33.5,26.6,06.1,-001.0,0022.84,0015.84,0014.91
2022-02-25 21:08:00,,0829.3,5.00,0.00,24.7,23.9,00.0,33.5,26.6,06.2,-001.0,0022.97,0015.87,0014.93
2022-02-25 21:09:00,,0829.0,5.01,0.00,24.7,23.9,00.0,33.5,26.6,06.2,-000.9,0023.84,0015.86,0014.95
2022-02-25 21:10:00,,0829.0,5.00,0.00,24.7,23.9,00.0,33.5,26.6,06.3,-000.9,0023.82,0015.88,0014.97
2022-02-25 21:11:00,,0828.9,4.99,0.00,24.7,23.9,00.0,33.5,26.6,06.3,-001.1,0024.54,0015.94,0015.01
2022-02-25 21:12:00,,0829.0,4.99,0.00,24.7,23.9,00.0,33.5,26.6,06.4,-001.3,0024.66,0015.93,0015.01
2022-02-25 21:13:00,,0829.0,5.01,0.00,24.7,23.9,00.0,33.5,26.6,06.2,-001.0,0025.46,0015.94,0015.04
2022-02-25 21:14:00,,0829.0,5.00,0.00,24.7,23.9,00.0,33.5,26.6,06.2,-001.1,0025.86,0016.02,0015.10
2022-02-25 21:15:00,,0829.0,4.99,0.00,24.7,23.9,00.0,33.5,26.6,06.2,-000.8,0026.42,0016.07,0015.16
2022-02-25 21:16:00,,0828.9,5.01,0.00,24.7,23.9,00.0,33.6,26.6,06.3,-000.3,0026.99,0016.04,0015.16
2022-02-25 21:17:00,,0828.9,5.00,0.00,24.7,23.9,00.0,33.6,26.6,06.2,0000.2,0027.41,0016.01,0015.15
2022-02-25 21:18:00,,0828.9,4.99,0.00,24.7,23.9,00.0,33.6,26.6,06.2,0000.2,0026.93,0015.99,0015.15
2022-02-25 21:19:00,,0828.8,4.99,0.00,24.7,23.9,00.0,33.6,26.6,06.3,0000.3,0026.98,0016.01,0015.15
2022-02-25 21:20:00,,0828.9,5.01,0.00,24.7,23.9,00.0,33.6,26.6,06.2,0000.4,0026.02,0016.02,0015.16
2022-02-25 21:21:00,,0829.0,4.99,0.00,24.7,23.9,00.0,33.6,26.6,06.2,0000.1,0026.04,0016.05,0015.17
2022-02-25 21:22:00,,0829.0,5.02,0.00,24.7,23.9,00.0,33.6,26.5,06.5,0000.8,0025.23,0015.96,0015.11
2022-02-25 21:23:00,,0829.0,4.99,0.00,24.7,23.9,00.0,33.6,26.5,06.4,0000.8,0024.90,0015.89,0015.07
2022-02-25 21:24:00,,0829.0,4.99,0.00,24.6,23.8,00.0,33.6,26.4,06.3,0000.7,0023.93,0015.82,0015.00
2022-02-25 21:25:00,,0829.0,5.01,0.00,24.6,23.8,00.0,33.6,26.5,06.5,0000.5,0023.71,0015.78,0014.94
2022-02-25 21:26:00,,0829.0,5.00,0.00,24.6,23.8,00.0,33.6,26.5,06.4,0000.4,0023.10,0015.74,0014.89
2022-02-25 21:27:00,,0829.0,4.99,0.00,24.6,23.8,00.0,33.6,26.5,06.4,0000.1,0022.45,0015.71,0014.83
2022-02-25 21:28:00,,0829.0,4.99,0.00,24.6,23.9,00.0,33.6,26.5,06.4,0000.1,0021.61,0015.65,0014.79
2022-02-25 21:29:00,,0829.0,5.01,0.00,24.7,23.9,00.0,33.6,26.5,06.3,0000.2,0021.14,0015.56,0014.72
2022-02-25 21:30:00,,0828.9,4.99,0.00,24.7,23.9,00.0,33.6,26.6,06.3,0000.2,0020.90,0015.48,0014.66
2022-02-25 21:31:00,,0829.0,4.99,0.00,24.7,23.9,00.0,33.6,26.6,06.4,0000.2,0020.85,0015.44,0014.61
2022-02-25 21:32:00,,0829.0,5.00,0.00,24.7,23.9,00.0,33.6,26.5,06.3,0000.5,0020.59,0015.36,0014.57
2022-02-25 21:33:00,,0829.0,5.00,0.00,24.7,23.9,00.0,33.6,26.6,06.4,0000.1,0020.53,0015.39,0014.58
2022-02-25 21:34:00,,0828.9,5.01,0.00,24.7,23.9,00.0,33.6,26.6,06.3,-000.1,0020.53,0015.41,0014.60
2022-02-25 21:35:00,,0829.0,4.99,0.00,24.7,23.9,00.0,33.6,26.6,06.3,-000.4,0020.69,0015.49,0014.64
2022-02-25 21:36:00,,0829.0,5.00,0.00,24.7,24.0,00.0,33.6,26.6,06.4,0000.0,0020.86,0015.51,0014.65
2022-02-25 21:37:00,,0829.0,5.01,0.00,24.7,24.0,00.0,33.6,26.6,06.3,0000.2,0021.13,0015.54,0014.64
2022-02-25 21:38:00,,0829.0,5.00,0.00,24.7,24.0,00.0,33.6,26.7,06.4,0000.1,0021.20,0015.56,0014.66
2022-02-25 21:39:00,,0829.0,4.98,0.00,24.7,24.0,00.0,33.6,26.7,06.3,0000.1,0021.71,0015.62,0014.68
2022-02-25 21:40:00,,0829.0,4.99,0.00,24.8,24.0,00.0,33.6,26.7,06.4,0000.3,0022.32,0015.68,0014.71
2022-02-25 21:41:00,,0829.0,5.00,0.00,24.8,24.0,00.0,33.6,26.7,06.4,0000.1,0022.52,0015.75,0014.76
2022-02-25 21:42:00,,0829.1,5.01,0.00,24.8,24.0,00.0,33.6,26.7,06.3,-000.1,0022.74,0015.79,0014.80
2022-02-25 21:43:00,,0829.1,4.99,0.00,24.8,24.0,00.0,33.6,26.7,06.3,0000.1,0022.99,0015.85,0014.83
2022-02-25 21:44:00,,0829.1,4.99,0.00,24.8,24.0,00.0,33.6,26.7,06.3,0000.3,0023.23,0015.90,0014.88
2022-02-25 21:45:00,,0829.1,5.00,0.00,24.8,24.0,00.0,33.6,26.7,06.4,0000.2,0023.39,0015.90,0014.88
2022-02-25 21:46:00,,0829.1,5.00,0.00,24.8,24.0,00.0,33.7,26.6,06.3,0000.0,0023.35,0015.88,0014.86
2022-02-25 21:47:00,,0829.1,5.01,0.00,24.8,24.0,00.0,33.7,26.6,06.4,-000.5,0023.27,0015.89,0014.88
2022-02-25 21:48:00,,0829.1,5.00,0.00,24.8,24.0,00.0,33.7,26.6,06.4,-000.8,0023.17,0015.88,0014.91
2022-02-25 21:49:00,,0829.0,4.99,0.00,24.8,24.0,00.0,33.7,26.6,06.4,-000.5,0023.17,0015.88,0014.92
2022-02-25 21:50:00,,0829.1,4.99,0.00,24.8,24.0,00.0,33.7,26.6,06.4,-000.6,0022.63,0015.80,0014.90
2022-02-25 21:51:00,,0829.1,5.00,0.00,24.8,24.0,00.0,33.7,26.6,06.4,-000.8,0022.24,0015.78,0014.90
2022-02-25 21:52:00,,0829.1,5.01,0.00,24.8,24.0,00.0,33.7,26.6,06.6,-000.8,0023.39,0015.77,0014.89
2022-02-25 21:53:00,,0829.0,4.98,0.00,24.8,24.0,00.0,33.7,26.6,06.6,-000.8,0023.70,0015.80,0014.89
2022-02-25 21:54:00,,0829.1,4.99,0.00,24.8,24.0,00.0,33.7,26.6,06.5,-000.8,0023.97,0015.81,0014.87
2022-02-25 21:55:00,,0829.1,5.00,0.00,24.8,24.0,00.0,33.7,26.6,06.4,-000.8,0023.99,0015.79,0014.86
2022-02-25 21:56:00,,0829.1,5.01,0.00,24.8,24.0,00.0,33.7,26.7,06.5,-000.7,0023.92,0015.84,0014.89
2022-02-25 21:57:00,,0829.1,5.02,0.00,24.8,24.0,00.0,33.7,26.7,06.4,-000.5,0023.91,0015.83,0014.91
2022-02-25 21:58:00,,0829.1,4.99,0.00,24.8,24.0,00.0,33.7,26.6,06.3,-000.0,0023.75,0015.84,0014.93
2022-02-25 21:59:00,,0829.1,5.00,0.00,24.8,24.0,00.0,33.7,26.7,06.3,0000.2,0024.05,0015.84,0014.94
